www.pogodaiklimat.ru

Погода и климат >> Архив погоды >> Оман >> Рустак


ПОГОДА в Рустаке

  • Прогноз погоды в Рустаке
  • Монитор погоды в Рустаке

АРХИВ ПОГОДЫ в Рустаке

Время (UTC), дата Ветер
(напр.,м/с)
 
Видим.   Явления Облачность Т
(С)
Тd
(С)
f
(%)
Тe
(С)
Тes
(С)
Комфортность P
(гПа)
Po
(гПа)
Тmin
(С)
Tmax
(С)
R
(мм)
R24
(мм)
S
(см)
18 11.09 С 1 н/о н/о +32.5 +18.4 43 +37 +37 очень
душно
1002.7 968.3 +40.9
21 11.09 СЗ 3 н/о н/о +31.6 +18.1 45 +36 +36 очень
душно
1002.1 967.6
00 12.09 ЮЗ 1 н/о н/о +28.9 +17.0 49 +33 +33 очень
душно
1002.1 967.3
03 12.09 ЮЗ 1 н/о н/о +28.5 +17.1 50 +32 +32 душно 1003.5 968.7
06 12.09 С 2 н/о н/о +35.5 +12.1 24 +35 +35 очень
жарко
1004.3 970.1 +28.0
09 12.09 н/о н/о +39.5 +8.6 16 1001.8 968.1
12 12.09 С 4 н/о н/о +38.3 +15.5 26 +40 +40 очень
душно
1000.7 967.0
15 12.09 З 2 н/о н/о +34.6 +16.0 33 +37 +37 очень
душно
1002.0 967.8
18 12.09 штиль 0 н/о н/о +31.6 +16.2 40 +35 +35 очень
душно
1002.8 968.3 +41.2
21 12.09 СВ 1 н/о н/о +30.6 +15.7 41 +33 +33 душно 1002.2 967.6
00 13.09 Ю 1 н/о н/о +28.8 +19.4 57 +35 +35 очень
душно
1002.2 967.4
03 13.09 Ю 1 н/о н/о +29.0 +18.7 54 +34 +34 очень
душно
1004.2 969.3
06 13.09 С 3 н/о н/о +38.2 +14.8 25 +39 +39 очень
душно
1002.7 968.9 +36.5
03 14.09 ЮЗ 1 н/о н/о +29.2 +20.6 60 +36 +36 очень
душно
1004.3 969.5
06 14.09 В 3 н/о н/о +36.2 +16.1 30 +38 +38 очень
душно
1004.6 970.5 +28.7
09 14.09 В 4 н/о н/о +40.5 +12.4 19 +40 +40 очень
жарко
1002.2 968.6
12 14.09 СЗ 4 н/о н/о +38.7 +16.7 28 +41 +41 опасность
перегрева
1001.6 967.9
15 14.09 З 3 н/о н/о +34.5 +16.9 35 +37 +37 очень
душно
1003.1 968.8
18 14.09 СВ 1 н/о н/о +31.7 +18.4 45 +36 +36 очень
душно
1004.1 969.6 +41.4
21 14.09 СЗ 1 н/о н/о +30.0 +19.0 52 +35 +35 очень
душно
1003.7 969.0
00 15.09 штиль 0 н/о н/о +28.4 +19.5 59 +34 +34 очень
душно
1004.0 969.1
03 15.09 штиль 0 н/о н/о +29.1 +19.5 56 +35 +35 очень
душно
1005.8 970.9
06 15.09 С 2 н/о н/о +35.0 +15.6 31 +37 +37 очень
душно
1006.5 972.2 +27.9
09 15.09 З 3 н/о н/о +38.2 +16.1 27 +40 +40 очень
душно
1004.3 970.4
12 15.09 З 3 н/о н/о +38.0 +19.7 35 +43 +43 опасность
перегрева
1002.8 969.0
15 15.09 З 3 н/о н/о +32.6 +20.5 49 +39 +39 очень
душно
1004.7 970.2
18 15.09 СВ 1 н/о н/о +31.3 +19.8 50 +37 +37 очень
душно
1005.7 971.0 +38.9
21 15.09 штиль 0 н/о н/о +30.3 +19.2 51 +36 +36 очень
душно
1004.9 970.2
00 16.09 СЗ 2 н/о н/о +29.4 +19.7 56 +35 +35 очень
душно
1005.3 970.5
03 16.09 СЗ 1 н/о н/о +29.1 +19.7 57 +35 +35 очень
душно
1006.8 971.9
06 16.09 С 2 н/о н/о +34.2 +20.8 46 +41 +41 опасность
перегрева
1006.9 972.5 +28.3
09 16.09 н/о н/о +38.3 +16.8 28 1004.1 970.3
12 16.09 ЮВ 4 н/о н/о +36.1 +21.8 44 +44 +44 опасность
перегрева
1003.0 969.1
15 16.09 В 3 н/о н/о +32.4 +23.1 58 +43 +43 опасность
перегрева
1003.7 969.4
18 16.09 СВ 1 н/о н/о +31.7 +23.5 62 +43 +43 опасность
перегрева
1004.4 970.0 +39.7
21 16.09 штиль 0 н/о н/о +30.9 +23.2 64 +41 +41 опасность
перегрева
1003.5 969.0
00 17.09 штиль 0 н/о н/о +28.5 +23.2 73 +38 +38 очень
душно
1003.8 969.0
03 17.09 ЮЗ 1 н/о н/о +29.3 +23.4 71 +40 +40 очень
душно
1005.4 970.6
06 17.09 З 1 н/о н/о +36.7 +13.4 25 +37 +37 очень
жарко
1005.5 971.4 +28.0
09 17.09 С 2 н/о н/о +40.6 -0.5 8 +37 +37 очень
жарко
1003.0 969.3
12 17.09 С 3 н/о н/о +40.5 -1.5 7 +36 +36 очень
жарко
1001.2 967.5
15 17.09 В 2 н/о н/о +35.8 +5.2 15 +33 +33 жарко 1002.4 968.3
18 17.09 З 1 н/о н/о +31.6 +9.3 25 +31 +31 жарко 1003.5 968.9 +41.2
21 17.09 Ю 1 н/о н/о +29.0 +9.8 30 +29 +29 жарко 1003.5 968.6
00 18.09 Ю 2 н/о н/о +28.4 +6.9 26 +28 +28 жарко 1003.2 968.2
03 18.09 ЮЗ 2 н/о н/о +27.4 +8.4 30 +27 +27 жарко 1005.2 970.1
06 18.09 СВ 2 н/о н/о +38.7 -1.0 8 +35 +35 очень
жарко
1005.2 971.3 +25.9
09 18.09 СВ 3 н/о н/о +40.9 -1.4 7 +37 +37 очень
жарко
1003.2 969.6
12 18.09 СВ 4 н/о н/о +40.5 +4.2 11 +37 +37 очень
жарко
1002.5 968.8
15 18.09 СЗ 3 н/о н/о +35.3 +10.2 22 +34 +34 очень
жарко
1004.4 970.1

 

Местоположение метеостанции Рустак (Оман): широта 23.40 долгота 57.42 высота над уровнем моря 322 м.

В архиве по умолчанию представлена погода в Рустаке за последнюю неделю. Архивные данные за месяц целиком и за предыдущие месяцы, начиная с января 2011 года, Вы можете получить, выбрав интересующий диапазон дат из раскрывающегося списка и нажав кнопку "Ввод!".


*Определитесь, кто Вы:
робот инопланетянин человек

Внимание! Время в таблицах - всемирное. Для получения местного времени необходимо прибавить поправку, которая равна 4 ч.

Смотрите также архив погоды в соседних городах и на ближайших метеорологических станциях:

Погода на Эш-Шам (Оман) (23 км)
Погода в Саике (Оман) (43 км)
Погода в Бахле (Оман) (48 км)
Погода в Эс-Сувейке (Оман) (49 км)
Погода в Самаиле (Оман) (53 км)
Погода в Назве (Оман) (62 км)
Погода в Сибе (Оман) (90 км)
Погода в Ибри (Оман) (92 км)
Погода в Аль Амарат (Оман) (109 км)
Погода в Адаме (Оман) (114 км)

Пояснения к столбцам:

Ветер - указаны скорость ветра в м/с - средняя за 10 мин, порывы в срок и между сроками (в фигурных скобках) и направление, откуда дует ветер: С - северный, СВ - северо-восточный, В - восточный, ЮВ - юго-восточный, Ю - южный, ЮЗ - юго-западный, З - западный, СЗ - северо-западный.
Видимость - горизонтальная дальность видимости в метрах или километрах. При видимости от 1 до 10 км при отсутствии осадков обычно наблюдается дымка, при ухудшении видимости до 1 км и менее - туман. В сухую погоду видимость может ухудшаться дымом, пылью или мглою.
Явления - указаны атмосферные явления, наблюдавшиеся в срок или в последний час перед сроком; фигурными скобками обозначены явления, наблюдавшиеся между сроками (за 1-3 часа до срока); квадратными скобками обозначены град или гололедные отложения с указанием их диаметра в мм.
Облачность - указаны через наклонную черту общая и нижняя облачность в баллах и высота нижней границы облаков в метрах; квадратными скобками обозначены формы облаков: Ci - перистые, Cs - перисто-слоистые, Cc - перисто-кучевые, Ac - высококучевые, As - высокослоистые, Sc - слоисто-кучевые, Ns - слоисто-дождевые, Cu - кучевые, Cb - кучево-дождевые. Подробнее классификацию облаков см. в Атласе облаков (PDF).
T - Температура воздуха - температура, измеренная на высоте 2 м над землей.
Td - Температура точки росы - температура, при понижении до которой содержащийся в воздухе водяной пар достигнет насыщения.
f - Относительная влажность воздуха - влажноcть воздуха, измеренная на высоте 2 м над землей.
Te - Эффективная температура - температура, которую ощущает одетый по сезону человек в тени. Характеристика душности погоды. При расчете учитывается влияние влажности воздуха и скорости ветра на теплоощущения человека.
Tes - Эффективная температура на солнце - температура, которую ощущает человек, с поправкой на солнечный нагрев. Характеристика знойности погоды. Зависит от высоты солнца над горизонтом, облачности и скорости ветра. Ночью, в пасмурную погоду, а также при ветре 12 м/с и более поправка равна нулю.
P - Атмосферное давление - приведенное к уровню моря атмосферное давление.
Po - Атмосферное давление - измеренное на уровне метеостанции атмосферное давление.
Tmin - Минимальная температура - минимум температуры воздуха на высоте 2 м над землей.
Tmax - Максимальная температура - максимум температуры воздуха на высоте 2 м над землей.
R - Количество осадков - Количество выпавших осадков за период времени, мм. При наведении курсора мыши на число - период времени, за который выпало указанное количество осадков.
R24 - Количество осадков - Количество выпавших осадков за 24 часа, мм.
S - Снежный покров - Высота снежного покрова, см. При наведении курсора мыши на число - состояние снежного покрова и степень покрытия местности в баллах.